Simultaneous Nadir Overpasses (SNOs) Predictions

Prediction of SNOs between AQUA and NPP Satellite Orbit:

Table of predicted SNOs for the next 14.0 days since TLE Epoch: 3/2/2013
Index Date (AQUA) Time (AQUA) Lat,Lon (AQUA) SZA (AQUA ) Date (NPP) Time (NPP) Lat,Lon (NPP) SZA (NPP ) Distance(km) Time Diff (sec)
1 03/02/2013 14:54:43 -76.58, 17.32 76.05 03/02/2013 14:53:55 -76.58, 17.26 76.00 1.62 48
2 03/02/2013 15:43:52 77.37,-172.11 103.00 03/02/2013 15:44:21 77.36,-172.19 102.99 2.09 29
3 03/05/2013 07:11:08 -76.87, 134.21 77.43 03/05/2013 07:10:47 -76.87, 134.15 77.40 1.83 21
4 03/05/2013 08:00:18 77.60, -55.29 101.67 03/05/2013 08:01:14 77.59, -55.37 101.64 2.04 56
5 03/07/2013 22:38:25 76.22, 80.23 102.30 03/07/2013 22:37:14 76.21, 80.14 102.39 2.74 71
6 03/07/2013 23:27:31 -77.23,-108.55 78.92 03/07/2013 23:27:37 -77.23,-108.56 78.92 0.35 6
7 03/10/2013 14:54:44 76.76,-162.05 100.60 03/10/2013 14:54:00 76.76,-162.04 100.64 0.27 44
8 03/10/2013 15:43:53 -77.61, 8.89 80.45 03/10/2013 15:44:26 -77.63, 8.99 80.51 2.84 33
9 03/13/2013 07:11:08 77.00, -45.31 99.25 03/13/2013 07:10:52 77.00, -45.34 99.27 1.04 16
10 03/13/2013 08:00:18 -77.80, 125.55 81.75 03/13/2013 08:01:19 -77.80, 125.61 81.81 1.62 61
11 03/15/2013 22:38:24 -76.44, -99.06 81.15 03/15/2013 22:37:19 -76.44, -99.08 81.09 0.66 65




NCC Satellite Simultaneous Nadir Overpasses (SNOs) Prediction Service
